Regional Weather Roundup
Issued by NWS

Home | Current Version | Previous Version | Text Only | Print | Product List | Glossary Off
Versions: 1 2 3 4 5 6 7 8 9 10 11 12 13 14 15 16 17 18 19 20 21 22 23 24 25 26 27 28 29 30 31 32 33 34 35 36 37 38 39 40 41 42 43 44 45 46 47 48 49 50

000
ASUS43 KLOT 242200
RWRIL

ILLINOIS REGIONAL WEATHER ROUNDUP
NATIONAL WEATHER SERVICE CHICAGO/ROMEOVILLE IL
500 PM CDT THU JUL 24 2014

NOTE: "FAIR" INDICATES FEW OR NO CLOUDS BELOW 12,000 FEET WITH NO
SIGNIFICANT WEATHER AND/OR OBSTRUCTIONS TO VISIBILITY.

* THESE STATIONS ARE NOT UNDER NWS QUALITY CONTROL. THEY ALSO MAY NOT
  REPORT WEATHER SUCH AS PRECIPITATION OR FOG.

ILZ001-002-007-009-015-016-024-242300-
NORTHWEST ILLINOIS

CITY           SKY/WX    TMP DP  RH WIND       PRES   REMARKS
MOLINE         MOSUNNY   76  55  48 CALM      30.08S
STERLING*      SUNNY     73  55  53 CALM      30.10R
$$

ILZ003-004-008-010-011-017-018-242300-
NORTH CENTRAL ILLINOIS

CITY           SKY/WX    TMP DP  RH WIND       PRES   REMARKS
ROCKFORD       PTSUNNY   77  53  43 VRB3      30.10R
$$

ILZ005-006-012>014-019>023-242300-
NORTHEAST ILLINOIS

CITY           SKY/WX    TMP DP  RH WIND       PRES   REMARKS
CHICAGO-OHARE  MOSUNNY   74  43  32 NE10      30.09F
CHICAGO-MIDWAY MOSUNNY   74  47  38 E10       30.09F
AURORA         SUNNY     76  47  35 N6        30.09F
WAUKEGAN       SUNNY     68  44  42 E7        30.11S
DUPAGE AIRPORT SUNNY     76  48  37 N8        30.09S
WHEELING       SUNNY     72  44  36 VRB5      30.11F
$$

LMZ740>746-242300-
SOUTHERN LAKE MICHIGAN

STATION/POSITION SKY/WX   TEMP    WIND        PRES    VSBY  WAVE
                          AIR SEA DIR/SP/G                  HT/PER
                          (F)     (DEG/KT/KT) (MB)    (MI)  (FT/S)
SOUTHERN BUOY              61 62  300/  6/  6 1020.2F         1
WAUKEGAN HARBOR            64     130/  5/  6   N/A
HARRISON CRIB              64      20/  7/  8   N/A
CALUMET HARBOR             67      30/  7/  9 1018.0F
MICHIGAN CITY              66     350/ 11/ 13   N/A
MICHIGAN CITY 6N           65 69   20/  8/ 10   N/A           2/ 2
ST. JOSEPH                 56 51   20/  2/  4   N/A           2/ 3
$$

ILZ025>027-034>036-040-047-049-050-058-095>099-242300-
WEST-CENTRAL ILLINOIS

CITY           SKY/WX    TMP DP  RH WIND       PRES   REMARKS
QUINCY         MOSUNNY   77  54  44 NE3       30.08R
$$

ILZ028>032-037-038-041>044-048-051>054-059>061-242300-
CENTRAL ILLINOIS

CITY           SKY/WX    TMP DP  RH WIND       PRES   REMARKS
DECATUR        SUNNY     77  56  48 CALM      30.07F
PEORIA         SUNNY     79  52  38 NE5       30.09R
SPRINGFIELD    SUNNY     79  55  43 NE8       30.07F
TAYLORVILLE    NOT AVBL
$$

ILZ033-039-045-046-055>057-062-063-242300-
EAST-CENTRAL ILLINOIS

CITY           SKY/WX    TMP DP  RH WIND       PRES   REMARKS
CHAMPAIGN      MOSUNNY   76  57  51 NE7       30.07F
MATTOON        MOSUNNY   77  56  48 N10       30.05F
$$

ILZ079-100>102-242300-
SOUTHWEST ILLINOIS

CITY           SKY/WX    TMP DP  RH WIND       PRES   REMARKS
ALTON          MOSUNNY   79  54  41 N8        30.05F
BELLEVILLE     MOSUNNY   82  58  43 VRB5      30.03F HX  82
CAHOKIA*       SUNNY     82  54  37 E9        30.04F HX  81
$$

ILZ064>066-069>071-074>076-080>082-084>086-088>090-092>094-242300-
SOUTH-CENTRAL ILLINOIS

CITY           SKY/WX    TMP DP  RH WIND       PRES   REMARKS
CARBONDALE     MOSUNNY   80  58  46 NE9       30.04F HX  80
MARION         PTSUNNY   81  59  47 N12       30.04F HX  81
MT. VERNON     MOSUNNY   77  57  50 N3        30.05F
$$

ILZ067-068-072-073-078-083-087-091-242300-
SOUTHEAST ILLINOIS

CITY           SKY/WX    TMP DP  RH WIND       PRES   REMARKS
LAWRENCEVILLE  SUNNY     79  59  50 VRB7      30.04F HX  80
$$

ABBREVIATIONS USED IN REMARKS
   TC - TEMPERATURE IN CELSIUS
  WCI - WIND CHILL INDEX
   HX - HEAT INDEX
  VSB - VISIBILITY
$$




USA.gov is the U.S. government's official web portal to all federal, state and local government web resources and services.